Location: Gad�tanya
(48.0500°N, 20.8500°E)
Time: 11:51:40
(UTC+00:00)

BREEZE-M DEB (TANK) - Pass Details

Date: 05 July 2020
Orbit: 428 x 13237 km, 46.0° (Epoch: 14 August)

Event Time Altitude Azimuth Distance (km) Brightness Sun altitude
Rises 22:56:05 0° 234° (SW) 7,988 8.3 -19.2°
Reaches altitude 10° 23:03:30 10° 230° (SW) 5,171 7.3 -19.1°
Maximum altitude 23:13:38 43° 164° (SSE) 1,333 4.3 -18.9°
Drops below altitude 10° 23:17:27 10° 91° (E) 1,962 5.7 -18.8°
Sets 23:19:01 0° 83° (E) 2,625 6.5 -18.8°
